Regional Weather Roundup
Issued by NWS Upton, NY

Home | Current Version | Previous Version | Text Only | Print | Product List | Glossary On
Versions: 1 2 3 4 5 6 7 8 9 10 11 12 13 14 15 16 17 18 19 20 21 22 23 24 25 26 27
000
ASUS41 KOKX 130408
RWROKX

REGIONAL WEATHER ROUNDUP
NATIONAL WEATHER SERVICE NEW YORK NY
1100 PM EST TUE DEC 12 2017

NOTE: "FAIR" INDICATES FEW OR NO CLOUDS BELOW 12,000 FEET WITH NO
SIGNIFICANT WEATHER AND/OR OBSTRUCTIONS TO VISIBILITY.

NYZ071-072-176-178-NJZ106-104-130500-
NEW YORK CITY METRO AREA

CITY           SKY/WX    TMP DP  RH WIND       PRES   REMARKS
Central Park   MOCLDY    32  15  49 NW9G25    29.46R WCI  24
Bronx Bot Gard   N/A     32  16  51 NW9       29.45S WCI  24
Bronx Lehman C   N/A     32  14  47 NW16        N/A  WCI  21
LaGuardia APRT PTCLDY    34  17  50 NW22      29.45R WCI  22
Queens College   N/A     32  14  47 NW20        N/A  WCI  20
Kennedy INTL   MOCLDY    33  18  53 NW22G30   29.46R WCI  21
Breezy Point     N/A     32 N/A N/A NW18G26     N/A  WCI  20
Brooklyn Coll    N/A     32  16  51 NW20G31     N/A  WCI  20
Staten Island    N/A     32  14  47 NW15        N/A  WCI  22
Newark/Liberty MOCLDY    32  13  45 NW16G29   29.46R WCI  21
Teterboro      CLEAR     31  15  52 NW20G28   29.45R WCI  19
$$

NYZ177-179-078>081-130500-
LONG ISLAND NEW YORK

CITY           SKY/WX    TMP DP  RH WIND       PRES   REMARKS
Jones Beach      N/A     34 N/A N/A NW22G29     N/A  WCI  22
Wantagh          N/A     32  21  64 W10         N/A  WCI  24
Matinecock PT    N/A     34 N/A N/A NW36G43     N/A  WCI  19
Farmingdale    MOCLDY    32  19  58 NW10G22   29.44R WCI  24
MacArthur/ISP  MOCLDY    33  21  61 NW14      29.41R WCI  23
Shirley        CLOUDY    35  24  64 NW14      29.41R WCI  26
Mt Sinai Harb    N/A    N/A N/A N/A NW10G18     N/A
Westhampton    CLOUDY    35  27  72 NW14      29.40R WCI  26
East Hampton   CLOUDY    34  24  65 NW14G22   29.35F WCI  25
Southold         N/A     36  27  69 N14         N/A  WCI  27
Montauk          N/A     39  32  76 NW14G22   29.35S WCI  31
$$

NYZ052-065-067-130500-
HUDSON VALLEY

CITY           SKY/WX    TMP DP  RH WIND       PRES   REMARKS
White Plains   PTCLDY    30  18  60 W18G25    29.40R WCI  18
Larchmont Harb   N/A    N/A N/A N/A W21G35      N/A
Croton On Huds   N/A    N/A N/A N/A NW25G32     N/A
Somers           N/A     28  18  64 NW6         N/A  WCI  22
Brewster         N/A     30  19  64 NW12        N/A  WCI  21
Newburgh       MOCLDY    27  18  69 MISG      29.44F
Montgomery     MOCLDY    26  13  57 NW15G28   29.44S WCI  14
Otisville        N/A     25  10  54 NW6         N/A  WCI  18
Warwick          N/A     27  10  50 NW12        N/A  WCI  16
Suffern          N/A     28  14  54 NW15G26     N/A  WCI  17
Poughkeepsie   CLOUDY    28  12  51 NW9G23    29.44R WCI  19
Albany         CLOUDY    24   9  52 W22G31    29.47S WCI   9
$$

NJZ001-105-106-008-010-013-015-019>022-104-130500-
NEW JERSEY

CITY           SKY/WX    TMP DP  RH WIND       PRES   REMARKS
Newark/Liberty MOCLDY    32  13  45 NW16G29   29.46R WCI  21
Teterboro      CLEAR     31  15  52 NW20G28   29.45R WCI  19
Caldwell       MOCLDY    29  11  47 NW9G17    29.48R WCI  20
Somerville     CLOUDY    29  12  49 NW8G18    29.49R WCI  21
Linden         CLOUDY    32  12  43 NW13G20   29.47R WCI  22
Perth Amboy      N/A     32 N/A N/A NW18G30     N/A  WCI  20
Sussex         CLOUDY    26  10  50 VRB5G17   29.47S WCI  20
Andover        NOT AVBL
Trenton        CLEAR     26   5  40 W18G28    29.53R WCI  13
Millville      CLEAR     26   7  44 NW15G33   29.60R WCI  14
Atlantic City  PTCLDY    29  11  47 NW23G36   29.55R WCI  15
Wrightstown    CLEAR     27   9  47 NW14G24   29.50R WCI  15
Toms River     CLOUDY    29  13  51 W24G32    29.51R WCI  15
Belmar         PTCLDY    30  15  53 W18G29    29.48R WCI  18
$$

PAZ047>061-062-071-130500-
EASTERN PENNSYLVANIA

CITY           SKY/WX    TMP DP  RH WIND       PRES   REMARKS
Philadelphia   CLEAR     26   2  35 NW25G37   29.60R WCI  11
Allentown      CLEAR     23   4  44 W15G26    29.55S WCI  10
Scranton       MOCLDY    20   3  48 NW20G25   29.51F WCI   4
$$

CTZ002-004>006-009-010-012-RIZ004-006-007-MAZ004-011-015-130500-
SOUTHERN NEW ENGLAND
 IN CT

CITY           SKY/WX    TMP DP  RH WIND       PRES   REMARKS
Bradley INTL   CLOUDY    29  19  66 NW14      29.38F WCI  18
Hartford       CLOUDY    31  19  61 N12G22    29.35F WCI  22
Danbury        CLOUDY    31  19  61 NW12G18   29.39F WCI  22
Wtrbury/Oxford CLOUDY    28  21  75 NW14      29.35F WCI  17
Norwalk Harbor   N/A    N/A N/A N/A W20G26      N/A
Bridgeport     CLOUDY    33  24  69 NW14G22   29.40R WCI  23
Meriden        PTCLDY    31  19  61 NW10G22   29.37S WCI  22
New Haven      MOCLDY    34  21  59 NW12G17   29.40R WCI  25
Chester        MOCLDY    32  21  64 NW12G17   29.36S WCI  23
Groton         CLOUDY    34  26  72 NW15G29   29.33F WCI  24
Wilimantic     CLOUDY    32  21  64 N8G16     29.37S WCI  25

 IN RI

CITY           SKY/WX    TMP DP  RH WIND       PRES   REMARKS
Providence     CLOUDY    36  32  85 NW13G22   29.30F WCI  27
Block Island   CLOUDY    39  32  76 NW12G22   29.32F WCI  32
Westerly       CLOUDY    36  29  75 NW9G18    29.34S WCI  29
 IN MA

CITY           SKY/WX    TMP DP  RH WIND       PRES   REMARKS
Boston         CLOUDY    35  32  88 W13       29.26F WCI  26
Worcester      CLOUDY    30  23  75 W24G32    29.26S WCI  16
Westfield      CLOUDY    28  18  66 NW17G29   29.37F WCI  16
Provincetown   CLOUDY    40  37  89 W16G24    29.26S WCI  31
Nantucket      CLOUDY    43  42  97 W17       29.26S
$$

ANZ330-335-338-340-345-350-353-355-130500-
COASTAL MARINE OBSERVATIONS


STATION/POSITION TIME  SKY/WX   TEMP    WIND        PRES    VSBY  WAVE
                                AIR SEA DIR/SP/G                  HT/PER
                 (UTC)          (F)     (DEG/KT/KT) (MB)    (MI)  (FT/S)
NY HARB ENTRANCE 0350            37 53  290/ 25/ 29  996.1          5/ 5
20 S FIRE ISLAND 0350            38 52  310/ 23/ 29  996.2          7/ 6
GREAT SOUTH BAY  0330            35 45  310/ 14/ 19   N/A
HUDSON CANYON    0350            43 56  320/ 29/ 35  995.2         10/ 7
KINGS POINT      0330            34 46  360/ 22/ 29  997.5
EXECUTION ROCKS  0330            35     300/ 17/ 27   N/A
WESTERN LI SOUND NOT AVBL
CENTRAL LI SOUND 0315            38     340/ 19/ 25   N/A           3
ROBBINS REEF     0330            34     300/ 23/ 29  997.9
$$


>>>>>>>>>>>>>>>>>>>>>>>>>>>> KEY <<<<<<<<<<<<<<<<<<<<<<<<<<<
>                                                          <
>     SKY/WX - Sky Condition/Present Weather               <
>     TMP    - Temperature in Fahrenheit                   <
>     DP     - Dew Point in Fahrenheit                     <
>     RH     - Relative Humidity in Percent                <
>     WIND   - Direction (from) and Speed in MPH           <
>     PRES   - Mean Sea Level Pressure (inches of Hg)      <
>     WCI    - Wind Chill Index                            <
>     VSB    - VISIBILITY IN MILES                         <
>     HX     - HEAT INDEX                                  <
>     TC     - TEMPERATURE IN CELSIUS                      <
>     VRB    - VARIABLE WIND DIRECTION                     <
>                                                          <
>>>>>>>>>>>>>>>>>>>>>>>>>>>> KEY <<<<<<<<<<<<<<<<<<<<<<<<<<<




USA.gov is the U.S. government's official web portal to all federal, state and local government web resources and services.